Cienfuegos, Cuba

8:52 AM CST on December 14, 2019 (GMT -0500)
Jaime Gonzalez

Weather History for MUCF - October, 2019

Change the Weather History Date:

Wednesday, October 9, 2019

  Actual Average Record
Temperature  
Mean Temperature 82 °F -  
Max Temperature 91 °F - - ()
Min Temperature 73 °F - - ()
Cooling Degree Days 17    
Growing Degree Days 32 (Base 50)    
Moisture  
Dew Point 75 °F    
Average Humidity 85    
Maximum Humidity 100    
Minimum Humidity 55    
Precipitation  
Precipitation 0.00 in - - ()
Sea Level Pressure  
Sea Level Pressure 29.94 in    
Wind  
Wind Speed 2 mph ()    
Max Wind Speed 5 mph    
Max Gust Speed -    
Visibility 6.2 miles    
Events      
T = Trace of Precipitation, MM = Missing Value Source: Averaged Metar Reports

Daily Weather History Graph

Daily Weather History Graph

Search for Another Location

Airport or City:

Astronomy

Oct. 09, 2019 Rise Set
Actual Time 7:15 AM CDT 7:01 PM CDT
Civil Twilight 6:53 AM CDT 7:24 PM CDT
Nautical Twilight 6:27 AM CDT 7:50 PM CDT
Astronomical Twilight 6:01 AM CDT 8:16 PM CDT
Moon 4:56 PM CDT (10/9) 3:41 AM CDT (10/9)
Length of Visible Light 12h 31m
Length of Day
11h 46m
Waxing Gibbous, 85% of the Moon is Illuminated
Oct 9
Waxing Gibbous
Oct 13
Full
Oct 21
Last Quarter
Oct 27
New
Nov 4
First Quarter

Hourly Weather History & Observations

Time (CDT) Temp. Heat Index Dew Point Humidity Pressure Visibility Wind Dir Wind Speed Gust Speed Precip Events Conditions
12:59 AM 77.0 °F - 75.2 °F 94% 29.95 in - East 4.6 mph - N/A   Unknown
1:58 AM 75.2 °F - 75.2 °F 100% 29.95 in - ENE 3.5 mph - N/A   Unknown
2:58 AM 75.2 °F - 73.4 °F 94% 29.92 in - Variable 2.3 mph - N/A   Unknown
3:58 AM 75.2 °F - 73.4 °F 94% 29.92 in - ENE 3.5 mph - N/A   Unknown
4:58 AM 73.4 °F - 73.4 °F 100% 29.92 in - East 4.6 mph - N/A   Unknown
5:59 AM 73.4 °F - 73.4 °F 100% 29.92 in - ESE 4.6 mph - N/A   Unknown
6:59 AM 73.4 °F - 73.4 °F 100% 29.95 in - NNE 3.5 mph - N/A   Unknown
7:59 AM 73.4 °F - 73.4 °F 100% 29.95 in - East 3.5 mph - N/A   Unknown
8:50 AM 78.8 °F - 75.2 °F 89% 29.98 in - Variable 1.2 mph - N/A   Clear
9:50 AM 84.2 °F 94.1 °F 77.0 °F 79% 29.98 in - Variable 1.2 mph - N/A   Clear
10:52 AM 86.0 °F 95.1 °F 75.2 °F 70% 29.98 in 6.2 mi Variable 1.2 mph - N/A   Partly Cloudy
11:50 AM 87.8 °F 95.6 °F 73.4 °F 62% 29.98 in 6.2 mi Variable 1.2 mph - N/A   Partly Cloudy
12:50 PM 89.6 °F 96.2 °F 71.6 °F 55% 29.95 in 6.2 mi Variable 1.2 mph - N/A   Partly Cloudy
2:50 PM 91.4 °F 100.1 °F 73.4 °F 55% 29.92 in 6.2 mi Variable 1.2 mph - N/A   Partly Cloudy
3:50 PM 91.4 °F 102.5 °F 75.2 °F 59% 29.89 in 6.2 mi Variable 1.2 mph - N/A   Partly Cloudy
4:59 PM 89.6 °F 99.8 °F 75.2 °F 62% 29.86 in - Variable 1.2 mph - N/A   Unknown
6:58 PM 86.0 °F 96.9 °F 77.0 °F 74% 29.89 in - Variable 1.2 mph - N/A   Unknown
7:59 PM 77.0 °F - 75.2 °F 94% 29.92 in - Variable 1.2 mph - N/A   Unknown
8:58 PM 78.8 °F - 77.0 °F 94% 29.95 in - Variable 1.2 mph - N/A   Unknown
9:58 PM 77.0 °F - 77.0 °F 100% 29.98 in - Variable 1.2 mph - N/A   Unknown
10:58 PM 77.0 °F - 77.0 °F 100% 29.98 in - Variable 1.2 mph - N/A   Unknown
11:58 PM 77.0 °F - 77.0 °F 100% 29.95 in - Variable 1.2 mph - N/A   Unknown